Location: Castillon
(43.0896°N, 0.2156°E)
Time: 19:40:14
(UTC+00:00)

Cosmos 2333 Rocket - Pass Details

Date: 16 June 2021
Orbit: 841 x 861 km, 70.8° (Epoch: 31 July)

Event Time Altitude Azimuth Distance (km) Brightness Sun altitude
Exits shadow 22:50:56 14° 228° (SW) 2,204 4.1 -21.7°
Maximum altitude 22:55:40 50° 300° (WNW) 1,085 3.0 -21.9°
Drops below altitude 10° 23:01:14 10° 16° (NNE) 2,493 5.5 -22.2°
Sets 23:03:47 0° 21° (NNE) 3,429 6.2 -22.3°
